• In Uzbekistan
  • List of Countries
  • For 7 days
  • Water Temperature
  • Satellite Maps
  • Weather Map
  • Weather Widgets
  • user-avatar
    Login

    Hourly Weather Kos

    Today, 18 August, Friday

    Time Temperature Precipitation Wind Pressure Humidity
    00:00 +28°C° 0 mm 4 mps 756 mmHg 59%
    01:00 +28°C° 0 mm 4 mps 756 mmHg 60%
    02:00 +28°C° 0 mm 4 mps 756 mmHg 59%
    03:00 +28°C° 0 mm 4 mps 756 mmHg 61%
    04:00 +27°C° 0 mm 4 mps 756 mmHg 63%
    05:00 +27°C° 0 mm 4 mps 757 mmHg 64%
    06:00 +28°C° 0 mm 3 mps 757 mmHg 61%
    07:00 +29°C° 0 mm 3 mps 757 mmHg 59%
    08:00 +30°C° 0 mm 3 mps 757 mmHg 56%
    09:00 +31°C° 0 mm 3 mps 758 mmHg 53%
    10:00 +33°C° 0 mm 3 mps 758 mmHg 49%
    11:00 +34°C° 0 mm 3 mps 758 mmHg 46%
    12:00 +35°C° 0 mm 4 mps 758 mmHg 42%
    13:00 +37°C° 0 mm 4 mps 758 mmHg 38%
    14:00 +38°C° 0 mm 4 mps 758 mmHg 35%
    15:00 +38°C° 0 mm 4 mps 758 mmHg 35%
    16:00 +37°C° 0 mm 4 mps 758 mmHg 35%
    17:00 +37°C° 0 mm 4 mps 758 mmHg 35%
    18:00 +35°C° 0 mm 4 mps 758 mmHg 42%
    19:00 +33°C° 0 mm 4 mps 758 mmHg 49%
    20:00 +29°C° 0 mm 4 mps 758 mmHg 56%
    21:00 +29°C° 0 mm 4 mps 758 mmHg 58%
    22:00 +28°C° 0 mm 4 mps 758 mmHg 60%
    23:00 +28°C° 0 mm 4 mps 758 mmHg 62%

    Tomorrow, 19 August, Saturday

    Time Temperature Precipitation Wind Pressure Humidity
    00:00 +27°C° 0 mm 4 mps 758 mmHg 63%
    01:00 +27°C° 0 mm 3 mps 758 mmHg 64%
    02:00 +26°C° 0 mm 3 mps 758 mmHg 65%
    03:00 +26°C° 0 mm 3 mps 758 mmHg 66%
    04:00 +26°C° 0 mm 3 mps 758 mmHg 67%
    05:00 +25°C° 0 mm 3 mps 758 mmHg 68%
    06:00 +27°C° 0 mm 3 mps 758 mmHg 61%
    07:00 +29°C° 0 mm 3 mps 758 mmHg 55%
    08:00 +31°C° 0 mm 3 mps 758 mmHg 48%
    09:00 +34°C° 0 mm 3 mps 759 mmHg 42%
    10:00 +37°C° 0 mm 3 mps 759 mmHg 36%
    11:00 +39°C° 0 mm 3 mps 759 mmHg 31%
    12:00 +40°C° 0 mm 3 mps 759 mmHg 29%
    13:00 +40°C° 0 mm 3 mps 759 mmHg 28%
    14:00 +41°C° 0 mm 4 mps 758 mmHg 27%
    15:00 +40°C° 0 mm 4 mps 758 mmHg 29%
    16:00 +38°C° 0 mm 4 mps 758 mmHg 32%
    17:00 +37°C° 0 mm 4 mps 758 mmHg 34%
    18:00 +35°C° 0 mm 4 mps 758 mmHg 43%
    19:00 +32°C° 0 mm 4 mps 759 mmHg 51%
    20:00 +29°C° 0 mm 4 mps 759 mmHg 60%
    21:00 +29°C° 0 mm 4 mps 759 mmHg 62%
    22:00 +28°C° 0 mm 4 mps 759 mmHg 64%
    23:00 +27°C° 0 mm 4 mps 759 mmHg 66%

    Day after tomorrow, 20 August, Sunday

    Time Temperature Precipitation Wind Pressure Humidity
    00:00 +27°C° 0 mm 4 mps 759 mmHg 65%
    01:00 +28°C° 0 mm 3 mps 759 mmHg 63%
    02:00 +28°C° 0 mm 3 mps 759 mmHg 62%
    03:00 +27°C° 0 mm 3 mps 759 mmHg 63%
    04:00 +26°C° 0 mm 3 mps 758 mmHg 63%
    05:00 +26°C° 0 mm 3 mps 758 mmHg 64%
    06:00 +28°C° 0 mm 3 mps 758 mmHg 57%
    07:00 +30°C° 0 mm 3 mps 759 mmHg 51%
    08:00 +31°C° 0 mm 2 mps 759 mmHg 45%
    09:00 +35°C° 0 mm 2 mps 759 mmHg 39%
    10:00 +37°C° 0 mm 2 mps 759 mmHg 33%
    11:00 +39°C° 0 mm 2 mps 759 mmHg 27%
    12:00 +39°C° 0 mm 3 mps 759 mmHg 25%
    13:00 +40°C° 0 mm 3 mps 759 mmHg 24%
    14:00 +41°C° 0 mm 4 mps 758 mmHg 23%
    15:00 +40°C° 0 mm 4 mps 758 mmHg 24%
    16:00 +38°C° 0 mm 4 mps 758 mmHg 25%
    17:00 +38°C° 0 mm 4 mps 758 mmHg 25%
    18:00 +35°C° 0 mm 4 mps 758 mmHg 32%
    19:00 +33°C° 0 mm 4 mps 758 mmHg 39%
    20:00 +29°C° 0 mm 4 mps 758 mmHg 46%
    21:00 +28°C° 0 mm 4 mps 758 mmHg 49%
    22:00 +28°C° 0 mm 4 mps 758 mmHg 51%
    23:00 +27°C° 0 mm 3 mps 758 mmHg 53%

    21 August, Monday

    Time Temperature Precipitation Wind Pressure Humidity
    00:00 +27°C° 0 mm 4 mps 758 mmHg 53%
    01:00 +27°C° 0 mm 4 mps 758 mmHg 54%
    02:00 +26°C° 0 mm 4 mps 758 mmHg 54%
    03:00 +26°C° 0 mm 4 mps 758 mmHg 53%
    04:00 +26°C° 0 mm 4 mps 758 mmHg 51%
    05:00 +27°C° 0 mm 4 mps 757 mmHg 50%
    06:00 +28°C° 0 mm 4 mps 758 mmHg 47%
    07:00 +29°C° 0 mm 4 mps 758 mmHg 43%
    08:00 +31°C° 0 mm 3 mps 758 mmHg 39%
    09:00 +34°C° 0 mm 3 mps 758 mmHg 36%
    10:00 +36°C° 0 mm 4 mps 758 mmHg 32%
    11:00 +37°C° 0 mm 4 mps 758 mmHg 29%
    12:00 +38°C° 0 mm 4 mps 758 mmHg 28%
    13:00 +38°C° 0 mm 4 mps 758 mmHg 27%
    14:00 +40°C° 0 mm 5 mps 757 mmHg 26%
    15:00 +39°C° 0 mm 5 mps 757 mmHg 28%
    16:00 +37°C° 0 mm 5 mps 757 mmHg 30%
    17:00 +36°C° 0 mm 5 mps 757 mmHg 32%
    18:00 +34°C° 0 mm 5 mps 758 mmHg 38%
    19:00 +32°C° 0 mm 5 mps 758 mmHg 45%
    20:00 +29°C° 0 mm 5 mps 758 mmHg 51%
    21:00 +28°C° 0 mm 5 mps 758 mmHg 53%
    22:00 +27°C° 0 mm 5 mps 759 mmHg 55%
    23:00 +26°C° 0 mm 5 mps 759 mmHg 58%

    22 August, Tuesday

    Time Temperature Precipitation Wind Pressure Humidity
    00:00 +26°C° 0 mm 5 mps 759 mmHg 57%
    01:00 +26°C° 0 mm 5 mps 759 mmHg 57%
    02:00 +25°C° 0 mm 5 mps 759 mmHg 56%
    03:00 +25°C° 0 mm 5 mps 759 mmHg 55%
    04:00 +25°C° 0 mm 5 mps 759 mmHg 55%
    05:00 +25°C° 0 mm 5 mps 759 mmHg 54%
    06:00 +27°C° 0 mm 5 mps 759 mmHg 48%
    07:00 +29°C° 0 mm 5 mps 759 mmHg 41%
    08:00 +32°C° 0 mm 4 mps 759 mmHg 34%
    09:00 +34°C° 0 mm 4 mps 759 mmHg 30%
    10:00 +36°C° 0 mm 4 mps 759 mmHg 27%
    11:00 +38°C° 0 mm 4 mps 759 mmHg 23%
    12:00 +40°C° 0 mm 5 mps 759 mmHg 23%
    13:00 +40°C° 0 mm 6 mps 759 mmHg 23%
    14:00 +40°C° 0 mm 7 mps 759 mmHg 23%
    15:00 +39°C° 0 mm 7 mps 759 mmHg 25%
    16:00 +39°C° 0 mm 8 mps 759 mmHg 28%
    17:00 +38°C° 0 mm 8 mps 758 mmHg 30%
    18:00 +34°C° 0 mm 8 mps 759 mmHg 36%
    19:00 +32°C° 0 mm 8 mps 759 mmHg 43%
    20:00 +29°C° 0 mm 8 mps 759 mmHg 49%
    21:00 +28°C° 0 mm 8 mps 759 mmHg 51%
    22:00 +27°C° 0 mm 8 mps 759 mmHg 53%
    23:00 +27°C° 0 mm 8 mps 760 mmHg 55%

    23 August, Wednesday

    Time Temperature Precipitation Wind Pressure Humidity
    00:00 +26°C° 0 mm 8 mps 759 mmHg 58%
    01:00 +24°C° 0 mm 7 mps 759 mmHg 61%
    02:00 +23°C° 0 mm 7 mps 759 mmHg 64%
    03:00 +22°C° 0 mm 8 mps 759 mmHg 65%
    04:00 +21°C° 0 mm 8 mps 759 mmHg 67%
    05:00 +21°C° 0 mm 8 mps 759 mmHg 69%
    06:00 +23°C° 0 mm 8 mps 760 mmHg 63%
    07:00 +26°C° 0 mm 8 mps 760 mmHg 57%
    08:00 +27°C° 0 mm 8 mps 760 mmHg 52%
    09:00 +31°C° 0 mm 8 mps 760 mmHg 43%
    10:00 +34°C° 0 mm 7 mps 760 mmHg 34%
    11:00 +38°C° 0 mm 7 mps 760 mmHg 25%
    12:00 +39°C° 0 mm 8 mps 760 mmHg 21%
    13:00 +40°C° 0 mm 8 mps 759 mmHg 17%
    14:00 +42°C° 0 mm 9 mps 759 mmHg 13%
    15:00 +42°C° 0 mm 9 mps 759 mmHg 11%
    16:00 +42°C° 0 mm 10 mps 759 mmHg 10%
    17:00 +40°C° 0 mm 10 mps 759 mmHg 8%
    18:00 +37°C° 0 mm 10 mps 759 mmHg 12%
    19:00 +33°C° 0 mm 10 mps 759 mmHg 16%
    20:00 +29°C° 0 mm 10 mps 759 mmHg 20%
    21:00 +27°C° 0 mm 10 mps 759 mmHg 26%
    22:00 +26°C° 0 mm 9 mps 759 mmHg 31%
    23:00 +24°C° 0 mm 9 mps 759 mmHg 37%
    Show more